Regional Weather Roundup
Issued by NWS

Home | Current Version | Previous Version | Graphics & Text | Print | Product List | Glossary On
Versions: 1 2 3 4 5 6 7 8 9 10 11 12 13 14 15 16 17 18 19 20 21 22 23 24 25 26 27 28
000
ASUS45 KSLC 240110
RWRUT

UTAH REGIONAL WEATHER ROUNDUP
NATIONAL WEATHER SERVICE SALT LAKE CITY UT
600 PM MST THU FEB 23 2017

UTZ001>011-023>025-240200-

NORTHERN UTAH

CITY           SKY/WX    TMP DP  RH WIND       PRES   REMARKS
BRIGHAM CITY     N/A     29  26  87 N5        29.86R WCI  24
HILL AFB       CLOUDY    29  18  63 W13       29.83R WCI  19
LOGAN          CLOUDY    30  24  78 NE5       29.84R WCI  25
OGDEN          CLOUDY    30  19  63 W13       29.83R WCI  20
SALT LAKE CITY CLOUDY    30  22  72 W10       29.86R WCI  21
TOOELE VALLEY  CLOUDY    32  25  74 E3        29.88S
WENDOVER       MOCLDY    32  12  43 N21G29    29.88R WCI  20
HEBER CITY     CLOUDY    25  16  68 SW5       29.79R WCI  19
WEST JORDAN    CLOUDY    31  30  97 CALM      29.87R

$$

UTZ011>015-024>027-240200-

CENTRAL/NORTHEAST UTAH

CITY           SKY/WX    TMP DP  RH WIND       PRES   REMARKS
PROVO AIRPORT  LGT SNOW  28  25  86 S5        29.88R FOG     WCI  23
MOAB/CANYONLAN MOCLDY    38  16  40 NW9       29.76R WCI  31
DELTA          CLOUDY    30  27  86 CALM      29.87R
PRICE          MOCLDY    29  11  47 NW14      29.75R WCI  18
ROOSEVELT      CLOUDY    30  27  86 NW6       29.76R WCI  24
VERNAL         CLOUDY    24  21  88 NE3       29.75R

$$

UTZ013>016-019>022-027-240200-

SOUTHERN UTAH

CITY           SKY/WX    TMP DP  RH WIND       PRES   REMARKS
BRYCE CANYON   MOCLDY    20  11  68 N12       29.78R WCI   8
CEDAR CITY     CLOUDY    33  15  47 NW8       29.81S WCI  26
MILFORD        FLURRIES  30  23  75 N9        29.84R WCI  22
HANKSVILLE     MOCLDY    39   3  22 NW14G20   29.80R WCI  31
BLANDING       MOCLDY    33   3  28 NW9       29.83R WCI  26

$$

REGIONAL REPORTS     COLORADO/ARIZONA

CITY           SKY/WX    TMP DP  RH WIND       PRES   REMARKS
CRAIG, CO      CLOUDY    24  18  77 W10       29.71R WCI  14
GRAND JUNCTION CLOUDY    34  18  52 N9        29.75R WCI  27
RIFLE, CO      MOCLDY    31  19  61 CALM      29.74R
MONTROSE, CO   CLEAR     34   0  23 W13       29.76R WCI  25
CORTEZ, CO     CLEAR     32   7  35 SW8       29.77R WCI  25
COLORADO CITY    N/A     39  12  33 NW14      29.88S WCI  31
PAGE, AZ       MOCLDY    44  -8  11 W12G22    29.81R
GRAND CANYON   PTCLDY    32   6  33 VRB7G16   29.82R WCI  26
KINGMAN, AZ    CLEAR     47 -19   6 W13       29.91R
FLAGSTAFF, AZ  MOCLDY    32  11  41 SW14G24   29.82R WCI  22

$$

REGIONAL REPORTS    NEVADA/IDAHO/WYOMING

CITY           SKY/WX    TMP DP  RH WIND       PRES   REMARKS
LAS VEGAS, NV  PTCLDY    53   5  14 VRB3      29.89S
ELY, NY        CLOUDY    23  10  57 NW12      29.86R WCI  12
ELKO, NV       MOCLDY    27  14  58 N8        29.93R WCI  19
POCATELLO, ID  LGT SNOW  25  23  92 SW25G31   29.83R VSB 1   WCI   9
BURLEY, ID     LGT SNOW  28  22  78 SW17      29.86R VSB 1   WCI  16
FORT BRIDGER,  FLURRIES  21  19  94 W16       29.75R WCI   7
EVANSTON, WY   CLOUDY    18  14  84 SW16      29.72R WCI   3
ROCK SPRINGS,  CLOUDY    20  12  71 N13G24    29.69R WCI   7

$$




USA.gov is the U.S. government's official web portal to all federal, state and local government web resources and services.